TimeMDT,TemperatureF,Dew PointF,Humidity,Sea Level PressureIn,VisibilityMPH,Wind Direction,Wind SpeedMPH,Gust SpeedMPH,PrecipitationIn,Events,Conditions,WindDirDegrees,DateUTC
12:53 AM,54.0,46.9,77,30.15,10.0,ENE,6.9,-,N/A,,Clear,70,2013-07-26 06:53:00
1:53 AM,53.1,46.9,80,30.16,10.0,ENE,6.9,-,N/A,,Clear,70,2013-07-26 07:53:00
2:53 AM,50.0,46.9,89,30.16,10.0,East,5.8,-,N/A,,Clear,80,2013-07-26 08:53:00
3:53 AM,48.9,46.9,93,30.15,10.0,NE,6.9,-,N/A,,Partly Cloudy,50,2013-07-26 09:53:00
4:29 AM,48.2,46.4,93,30.32,10.0,NE,8.1,-,N/A,Thunderstorm,Mostly Cloudy,40,2013-07-26 10:29:00
4:53 AM,48.9,46.0,90,30.16,10.0,East,4.6,-,N/A,Thunderstorm,Overcast,80,2013-07-26 10:53:00
5:53 AM,48.9,45.0,86,30.21,3.0,NW,8.1,27.6,0.08,Rain-Thunderstorm,Heavy Thunderstorms and Rain,320,2013-07-26 11:53:00
6:38 AM,48.2,46.4,93,30.34,7.0,West,6.9,-,0.10,Rain,Light Rain,270,2013-07-26 12:38:00
6:53 AM,48.0,46.0,93,30.15,10.0,South,5.8,-,0.11,Rain,Light Rain,190,2013-07-26 12:53:00
7:53 AM,48.9,48.0,97,30.19,10.0,NE,12.7,-,0.00,,Scattered Clouds,50,2013-07-26 13:53:00
8:02 AM,50.0,48.2,94,30.33,9.0,ENE,11.5,-,N/A,,Mostly Cloudy,60,2013-07-26 14:02:00
8:53 AM,50.0,48.0,93,30.23,10.0,East,9.2,-,N/A,,Overcast,90,2013-07-26 14:53:00
9:27 AM,53.6,48.2,82,30.35,10.0,ESE,5.8,-,N/A,,Overcast,120,2013-07-26 15:27:00
9:53 AM,52.0,48.0,86,30.23,10.0,SE,5.8,-,N/A,,Mostly Cloudy,130,2013-07-26 15:53:00
10:31 AM,55.4,50.0,82,30.35,10.0,East,5.8,-,N/A,,Scattered Clouds,80,2013-07-26 16:31:00
10:53 AM,57.0,50.0,77,30.22,10.0,Calm,Calm,-,N/A,,Partly Cloudy,0,2013-07-26 16:53:00
11:53 AM,61.0,51.1,70,30.20,10.0,Variable,4.6,-,N/A,,Partly Cloudy,0,2013-07-26 17:53:00
12:53 PM,63.0,52.0,67,30.19,10.0,SE,4.6,-,N/A,,Mostly Cloudy,140,2013-07-26 18:53:00
1:46 PM,60.8,51.8,72,30.33,10.0,East,11.5,-,N/A,,Overcast,90,2013-07-26 19:46:00
1:53 PM,60.1,50.0,69,30.19,10.0,East,10.4,-,N/A,,Overcast,100,2013-07-26 19:53:00
2:18 PM,64.4,51.8,64,30.31,10.0,East,9.2,-,N/A,,Mostly Cloudy,80,2013-07-26 20:18:00
2:53 PM,64.9,52.0,63,30.17,10.0,East,11.5,-,N/A,,Mostly Cloudy,80,2013-07-26 20:53:00
3:53 PM,64.0,52.0,65,30.17,10.0,East,6.9,-,N/A,,Partly Cloudy,100,2013-07-26 21:53:00
4:53 PM,64.9,52.0,63,30.16,10.0,East,10.4,-,N/A,,Clear,80,2013-07-26 22:53:00
5:53 PM,63.0,50.0,63,30.16,10.0,East,10.4,-,N/A,,Clear,80,2013-07-26 23:53:00
6:53 PM,61.0,48.0,62,30.16,10.0,East,10.4,-,N/A,,Clear,90,2013-07-27 00:53:00
7:53 PM,57.9,46.0,65,30.17,10.0,ENE,8.1,-,N/A,,Clear,70,2013-07-27 01:53:00
8:53 PM,55.0,45.0,69,30.19,10.0,ENE,6.9,-,N/A,,Clear,70,2013-07-27 02:53:00
9:53 PM,52.0,42.1,69,30.20,10.0,ENE,5.8,-,N/A,,Clear,60,2013-07-27 03:53:00
10:53 PM,51.1,41.0,68,30.18,10.0,ENE,6.9,-,N/A,,Clear,70,2013-07-27 04:53:00
11:53 PM,48.0,42.1,80,30.18,10.0,NE,5.8,-,N/A,,Clear,40,2013-07-27 05:53:00